Location: Driftpile
(55.3500°N, 115.7667°W)
Time: 09:18:08
(UTC+00:00)

N. Korean satellite - Pass Details

Date: 27 November 2021
Orbit: 447 x 490 km, 97.3° (Epoch: 26 January)

Event Time Altitude Azimuth Distance (km) Brightness Sun altitude
Rises 14:23:49 0° 4° (N) 2,504 10.0 -10.2°
Reaches altitude 10° 14:26:16 10° 347° (NNW) 1,614 8.9 -9.8°
Maximum altitude 14:28:48 19° 299° (WNW) 1,140 7.8 -9.5°
Drops below altitude 10° 14:31:18 10° 252° (WSW) 1,590 8.7 -9.2°
Sets 14:33:41 0° 234° (SW) 2,453 9.8 -8.9°
